Year,Month,Day,Hour,Minute,Value (Times are PST for temperature in C)
2013,12,08,00,00,-6.50
2013,12,08,00,01,-6.50
2013,12,08,00,02,-6.50
2013,12,08,00,03,-6.60
2013,12,08,00,04,-6.60
2013,12,08,00,05,-6.60
2013,12,08,00,06,-6.60
2013,12,08,00,07,-6.60
2013,12,08,00,08,-6.60
2013,12,08,00,09,-6.60
2013,12,08,00,10,-6.60
2013,12,08,00,11,-6.60
2013,12,08,00,12,-6.60
2013,12,08,00,13,-6.60
2013,12,08,00,14,-6.60
2013,12,08,00,15,-6.60
2013,12,08,00,16,-6.60
2013,12,08,00,17,-6.60
2013,12,08,00,18,-6.60
2013,12,08,00,19,-6.50
2013,12,08,00,20,-6.50
2013,12,08,00,21,-6.50
2013,12,08,00,22,-6.40
2013,12,08,00,23,-6.40
2013,12,08,00,24,-6.40
2013,12,08,00,25,-6.40
2013,12,08,00,26,-6.40
2013,12,08,00,27,-6.40
2013,12,08,00,28,-6.40
2013,12,08,00,29,-6.40
2013,12,08,00,30,-6.40
2013,12,08,00,31,-6.40
2013,12,08,00,32,-6.40
2013,12,08,00,33,-6.30
2013,12,08,00,34,-6.30
2013,12,08,00,35,-6.30
2013,12,08,00,36,-6.30
2013,12,08,00,37,-6.30
2013,12,08,00,38,-6.20
2013,12,08,00,39,-6.20
2013,12,08,00,40,-6.20
2013,12,08,00,41,-6.10
2013,12,08,00,42,-6.10
2013,12,08,00,43,-6.00
2013,12,08,00,44,-6.00
2013,12,08,00,45,-5.90
2013,12,08,00,46,-5.90
2013,12,08,00,47,-5.90
2013,12,08,00,48,-5.90
2013,12,08,00,49,-5.90
2013,12,08,00,50,-5.90
2013,12,08,00,51,-5.90
2013,12,08,00,52,-5.80
2013,12,08,00,53,-5.80
2013,12,08,00,54,-5.80
2013,12,08,00,55,-5.80
2013,12,08,00,56,-5.80
2013,12,08,00,57,-5.80
2013,12,08,00,58,-5.80
2013,12,08,00,59,-5.80
2013,12,08,01,00,-5.80
2013,12,08,01,01,-5.80
2013,12,08,01,02,-5.80
2013,12,08,01,03,-5.80
2013,12,08,01,04,-5.70
2013,12,08,01,05,-5.70
2013,12,08,01,06,-5.60
2013,12,08,01,07,-5.60
2013,12,08,01,08,-5.50
2013,12,08,01,09,-5.40
2013,12,08,01,10,-5.40
2013,12,08,01,11,-5.40
2013,12,08,01,12,-5.30
2013,12,08,01,13,-5.30
2013,12,08,01,14,-5.30
2013,12,08,01,15,-5.20
2013,12,08,01,16,-5.20
2013,12,08,01,17,-5.10
2013,12,08,01,18,-5.10
2013,12,08,01,19,-5.10
2013,12,08,01,20,-5.10
2013,12,08,01,21,-5.00
2013,12,08,01,22,-5.00
2013,12,08,01,23,-5.00
2013,12,08,01,24,-4.90
2013,12,08,01,25,-4.90
2013,12,08,01,26,-4.90
2013,12,08,01,27,-4.90
2013,12,08,01,28,-4.90
2013,12,08,01,29,-4.90
2013,12,08,01,30,-4.90
2013,12,08,01,31,-4.90
2013,12,08,01,32,-4.90
2013,12,08,01,33,-4.90
2013,12,08,01,34,-4.90
2013,12,08,01,35,-4.90
2013,12,08,01,36,-4.90
2013,12,08,01,37,-4.90
2013,12,08,01,38,-4.90
2013,12,08,01,39,-4.80
2013,12,08,01,40,-4.70
2013,12,08,01,41,-4.70
2013,12,08,01,42,-4.60
2013,12,08,01,43,-4.60
2013,12,08,01,44,-4.60
2013,12,08,01,45,-4.60
2013,12,08,01,46,-4.60
2013,12,08,01,47,-4.60
2013,12,08,01,48,-4.60
2013,12,08,01,49,-4.60
2013,12,08,01,50,-4.60
2013,12,08,01,51,-4.60
2013,12,08,01,52,-4.60
2013,12,08,01,53,-4.60
2013,12,08,01,54,-4.60
2013,12,08,01,55,-4.60
2013,12,08,01,56,-4.60
2013,12,08,01,57,-4.60
2013,12,08,01,58,-4.60
2013,12,08,01,59,-4.60
2013,12,08,02,00,-4.60
2013,12,08,02,01,-4.60
2013,12,08,02,02,-4.60
2013,12,08,02,03,-4.60
2013,12,08,02,04,-4.60
2013,12,08,02,05,-4.60
2013,12,08,02,06,-4.60
2013,12,08,02,07,-4.60
2013,12,08,02,08,-4.60
2013,12,08,02,09,-4.60
2013,12,08,02,10,-4.50
2013,12,08,02,11,-4.50
2013,12,08,02,12,-4.50
2013,12,08,02,13,-4.40
2013,12,08,02,14,-4.40
2013,12,08,02,15,-4.40
2013,12,08,02,16,-4.40
2013,12,08,02,17,-4.40
2013,12,08,02,18,-4.40
2013,12,08,02,19,-4.40
2013,12,08,02,20,-4.40
2013,12,08,02,21,-4.40
2013,12,08,02,22,-4.30
2013,12,08,02,23,-4.30
2013,12,08,02,24,-4.30
2013,12,08,02,25,-4.30
2013,12,08,02,26,-4.30
2013,12,08,02,27,-4.30
2013,12,08,02,28,-4.30
2013,12,08,02,29,-4.30
2013,12,08,02,30,-4.30
2013,12,08,02,31,-4.40
2013,12,08,02,32,-4.40
2013,12,08,02,33,-4.40
2013,12,08,02,34,-4.40
2013,12,08,02,35,-4.40
2013,12,08,02,36,-4.40
2013,12,08,02,37,-4.40
2013,12,08,02,38,-4.30
2013,12,08,02,39,-4.30
2013,12,08,02,40,-4.30
2013,12,08,02,41,-4.20
2013,12,08,02,42,-4.20
2013,12,08,02,43,-4.20
2013,12,08,02,44,-4.20
2013,12,08,02,45,-4.20
2013,12,08,02,46,-4.20
2013,12,08,02,47,-4.20
2013,12,08,02,48,-4.20
2013,12,08,02,49,-4.30
2013,12,08,02,50,-4.30
2013,12,08,02,51,-4.30
2013,12,08,02,52,-4.30
2013,12,08,02,53,-4.30
2013,12,08,02,54,-4.20
2013,12,08,02,55,-4.20
2013,12,08,02,56,-4.20
2013,12,08,02,57,-4.10
2013,12,08,02,58,-4.10
2013,12,08,02,59,-4.10
2013,12,08,03,00,-4.10
2013,12,08,03,01,-4.10
2013,12,08,03,02,-4.10
2013,12,08,03,03,-4.10
2013,12,08,03,04,-4.10
2013,12,08,03,05,-4.00
2013,12,08,03,06,-4.00
2013,12,08,03,07,-3.90
2013,12,08,03,08,-3.90
2013,12,08,03,09,-3.90
2013,12,08,03,10,-3.90
2013,12,08,03,11,-3.90
2013,12,08,03,12,-3.90
2013,12,08,03,13,-3.90
2013,12,08,03,14,-3.90
2013,12,08,03,15,-3.90
2013,12,08,03,16,-3.90
2013,12,08,03,17,-3.90
2013,12,08,03,18,-3.80
2013,12,08,03,19,-3.80
2013,12,08,03,20,-3.80
2013,12,08,03,21,-3.80
2013,12,08,03,22,-3.80
2013,12,08,03,23,-3.80
2013,12,08,03,24,-3.80
2013,12,08,03,25,-3.80
2013,12,08,03,26,-3.80
2013,12,08,03,27,-3.80
2013,12,08,03,28,-3.80
2013,12,08,03,29,-3.80
2013,12,08,03,30,-3.80
2013,12,08,03,31,-3.80
2013,12,08,03,32,-3.80
2013,12,08,03,33,-3.80
2013,12,08,03,34,-3.80
2013,12,08,03,35,-3.80
2013,12,08,03,36,-3.80
2013,12,08,03,37,-3.80
2013,12,08,03,38,-3.80
2013,12,08,03,39,-3.80
2013,12,08,03,40,-3.80
2013,12,08,03,41,-3.80
2013,12,08,03,42,-3.80
2013,12,08,03,43,-3.80
2013,12,08,03,44,-3.80
2013,12,08,03,45,-3.80
2013,12,08,03,46,-3.80
2013,12,08,03,47,-3.80
2013,12,08,03,48,-3.80
2013,12,08,03,49,-3.80
2013,12,08,03,50,-3.80
2013,12,08,03,51,-3.80
2013,12,08,03,52,-3.80
2013,12,08,03,53,-3.80
2013,12,08,03,54,-3.80
2013,12,08,03,55,-3.80
2013,12,08,03,56,-3.80
2013,12,08,03,57,-3.80
2013,12,08,03,58,-3.70
2013,12,08,03,59,-3.70
2013,12,08,04,00,-3.70
2013,12,08,04,01,-3.70
2013,12,08,04,02,-3.70
2013,12,08,04,03,-3.70
2013,12,08,04,04,-3.70
2013,12,08,04,05,-3.70
2013,12,08,04,06,-3.70
2013,12,08,04,07,-3.70
2013,12,08,04,08,-3.70
2013,12,08,04,09,-3.70
2013,12,08,04,10,-3.70
2013,12,08,04,11,-3.70
2013,12,08,04,12,-3.70
2013,12,08,04,13,-3.70
2013,12,08,04,14,-3.70
2013,12,08,04,15,-3.70
2013,12,08,04,16,-3.70
2013,12,08,04,17,-3.70
2013,12,08,04,18,-3.70
2013,12,08,04,19,-3.70
2013,12,08,04,20,-3.70
2013,12,08,04,21,-3.70
2013,12,08,04,22,-3.70
2013,12,08,04,23,-3.70
2013,12,08,04,24,-3.70
2013,12,08,04,25,-3.70
2013,12,08,04,26,-3.70
2013,12,08,04,27,-3.70
2013,12,08,04,28,-3.70
2013,12,08,04,29,-3.70
2013,12,08,04,30,-3.70
2013,12,08,04,31,-3.70
2013,12,08,04,32,-3.70
2013,12,08,04,33,-3.70
2013,12,08,04,34,-3.70
2013,12,08,04,35,-3.70
2013,12,08,04,36,-3.70
2013,12,08,04,37,-3.70
2013,12,08,04,38,-3.70
2013,12,08,04,39,-3.70
2013,12,08,04,40,-3.70
2013,12,08,04,41,-3.70
2013,12,08,04,42,-3.70
2013,12,08,04,43,-3.70
2013,12,08,04,44,-3.70
2013,12,08,04,45,-3.70
2013,12,08,04,46,-3.70
2013,12,08,04,47,-3.70
2013,12,08,04,48,-3.70
2013,12,08,04,49,-3.70
2013,12,08,04,50,-3.70
2013,12,08,04,51,-3.70
2013,12,08,04,52,-3.70
2013,12,08,04,53,-3.70
2013,12,08,04,54,-3.70
2013,12,08,04,55,-3.70
2013,12,08,04,56,-3.70
2013,12,08,04,57,-3.70
2013,12,08,04,58,-3.70
2013,12,08,04,59,-3.70
2013,12,08,05,00,-3.70
2013,12,08,05,01,-3.70
2013,12,08,05,02,-3.70
2013,12,08,05,03,-3.70
2013,12,08,05,04,-3.70
2013,12,08,05,05,-3.70
2013,12,08,05,06,-3.70
2013,12,08,05,07,-3.70
2013,12,08,05,08,-3.70
2013,12,08,05,09,-3.70
2013,12,08,05,10,-3.70
2013,12,08,05,11,-3.70
2013,12,08,05,12,-3.70
2013,12,08,05,13,-3.70
2013,12,08,05,14,-3.70
2013,12,08,05,15,-3.70
2013,12,08,05,16,-3.70
2013,12,08,05,17,-3.70
2013,12,08,05,18,-3.70
2013,12,08,05,19,-3.70
2013,12,08,05,20,-3.70
2013,12,08,05,21,-3.70
2013,12,08,05,22,-3.70
2013,12,08,05,23,-3.70
2013,12,08,05,24,-3.70
2013,12,08,05,25,-3.80
2013,12,08,05,26,-3.80
2013,12,08,05,27,-3.80
2013,12,08,05,28,-3.80
2013,12,08,05,29,-3.80
2013,12,08,05,30,-3.80
2013,12,08,05,31,-3.80
2013,12,08,05,32,-3.80
2013,12,08,05,33,-3.80
2013,12,08,05,34,-3.80
2013,12,08,05,35,-3.90
2013,12,08,05,36,-3.90
2013,12,08,05,37,-3.90
2013,12,08,05,38,-3.90
2013,12,08,05,39,-3.90
2013,12,08,05,40,-3.90
2013,12,08,05,41,-4.00
2013,12,08,05,42,-4.00
2013,12,08,05,43,-4.00
2013,12,08,05,44,-4.00
2013,12,08,05,45,-4.00
2013,12,08,05,46,-4.00
2013,12,08,05,47,-4.10
2013,12,08,05,48,-4.10
2013,12,08,05,49,-4.10
2013,12,08,05,50,-4.10
2013,12,08,05,51,-4.10
2013,12,08,05,52,-4.10
2013,12,08,05,53,-4.20
2013,12,08,05,54,-4.20
2013,12,08,05,55,-4.20
2013,12,08,05,56,-4.20
2013,12,08,05,57,-4.20
2013,12,08,05,58,-4.30
2013,12,08,05,59,-4.30
2013,12,08,06,00,-4.30
2013,12,08,06,01,-4.30
2013,12,08,06,02,-4.30
2013,12,08,06,03,-4.30
2013,12,08,06,04,-4.30
2013,12,08,06,05,-4.40
2013,12,08,06,06,-4.40
2013,12,08,06,07,-4.40
2013,12,08,06,08,-4.40
2013,12,08,06,09,-4.40
2013,12,08,06,10,-4.40
2013,12,08,06,11,-4.50
2013,12,08,06,12,-4.50
2013,12,08,06,13,-4.50
2013,12,08,06,14,-4.50
2013,12,08,06,15,-4.50
2013,12,08,06,16,-4.50
2013,12,08,06,17,-4.50
2013,12,08,06,18,-4.60
2013,12,08,06,19,-4.60
2013,12,08,06,20,-4.60
2013,12,08,06,21,-4.60
2013,12,08,06,22,-4.60
2013,12,08,06,23,-4.60
2013,12,08,06,24,-4.60
2013,12,08,06,25,-4.60
2013,12,08,06,26,-4.60
2013,12,08,06,27,-4.60
2013,12,08,06,28,-4.60
2013,12,08,06,29,-4.60
2013,12,08,06,30,-4.60
2013,12,08,06,31,-4.50
2013,12,08,06,32,-4.50
2013,12,08,06,33,-4.50
2013,12,08,06,34,-4.50
2013,12,08,06,35,-4.50
2013,12,08,06,36,-4.50
2013,12,08,06,37,-4.50
2013,12,08,06,38,-4.50
2013,12,08,06,39,-4.50
2013,12,08,06,40,-4.50
2013,12,08,06,41,-4.50
2013,12,08,06,42,-4.50
2013,12,08,06,43,-4.50
2013,12,08,06,44,-4.50
2013,12,08,06,45,-4.50
2013,12,08,06,46,-4.50
2013,12,08,06,47,-4.50
2013,12,08,06,48,-4.50
2013,12,08,06,49,-4.50
2013,12,08,06,50,-4.50
2013,12,08,06,51,-4.50
2013,12,08,06,52,-4.50
2013,12,08,06,53,-4.40
2013,12,08,06,54,-4.40
2013,12,08,06,55,-4.40
2013,12,08,06,56,-4.40
2013,12,08,06,57,-4.40
2013,12,08,06,58,-4.40
2013,12,08,06,59,-4.40
2013,12,08,07,00,-4.40
2013,12,08,07,01,-4.50
2013,12,08,07,02,-4.50
2013,12,08,07,03,-4.50
2013,12,08,07,04,-4.50
2013,12,08,07,05,-4.50
2013,12,08,07,06,-4.50
2013,12,08,07,07,-4.60
2013,12,08,07,08,-4.60
2013,12,08,07,09,-4.60
2013,12,08,07,10,-4.60
2013,12,08,07,11,-4.60
2013,12,08,07,12,-4.70
2013,12,08,07,13,-4.70
2013,12,08,07,14,-4.70
2013,12,08,07,15,-4.70
2013,12,08,07,16,-4.70
2013,12,08,07,17,-4.80
2013,12,08,07,18,-4.80
2013,12,08,07,19,-4.80
2013,12,08,07,20,-4.80
2013,12,08,07,21,-4.80
2013,12,08,07,22,-4.80
2013,12,08,07,23,-4.80
2013,12,08,07,24,-4.80
2013,12,08,07,25,-4.90
2013,12,08,07,26,-4.90
2013,12,08,07,27,-4.90
2013,12,08,07,28,-4.90
2013,12,08,07,29,-4.90
2013,12,08,07,30,-4.90
2013,12,08,07,31,-4.90
2013,12,08,07,32,-4.90
2013,12,08,07,33,-4.90
2013,12,08,07,34,-4.90
2013,12,08,07,35,-4.90
2013,12,08,07,36,-4.90
2013,12,08,07,37,-5.00
2013,12,08,07,38,-5.00
2013,12,08,07,39,-5.00
2013,12,08,07,40,-5.10
2013,12,08,07,41,-5.10
2013,12,08,07,42,-5.10
2013,12,08,07,43,-5.10
2013,12,08,07,44,-5.10
2013,12,08,07,45,-5.10
2013,12,08,07,46,-5.10
2013,12,08,07,47,-5.10
2013,12,08,07,48,-5.20
2013,12,08,07,49,-5.20
2013,12,08,07,50,-5.20
2013,12,08,07,51,-5.20
2013,12,08,07,52,-5.20
2013,12,08,07,53,-5.20
2013,12,08,07,54,-5.20
2013,12,08,07,55,-5.20
2013,12,08,07,56,-5.30
2013,12,08,07,57,-5.30
2013,12,08,07,58,-5.30
2013,12,08,07,59,-5.30
2013,12,08,08,00,-5.30
2013,12,08,08,01,-5.30
2013,12,08,08,02,-5.30
2013,12,08,08,03,-5.30
2013,12,08,08,04,-5.30
2013,12,08,08,05,-5.30
2013,12,08,08,06,-5.30
2013,12,08,08,07,-5.30
2013,12,08,08,08,-5.30
2013,12,08,08,09,-5.30
2013,12,08,08,10,-5.30
2013,12,08,08,11,-5.30
2013,12,08,08,12,-5.30
2013,12,08,08,13,-5.30
2013,12,08,08,14,-5.30
2013,12,08,08,15,-5.30
2013,12,08,08,16,-5.30
2013,12,08,08,17,-5.30
2013,12,08,08,18,-5.30
2013,12,08,08,19,-5.30
2013,12,08,08,20,-5.20
2013,12,08,08,21,-5.20
2013,12,08,08,22,-5.20
2013,12,08,08,23,-5.20
2013,12,08,08,24,-5.20
2013,12,08,08,25,-5.20
2013,12,08,08,26,-5.20
2013,12,08,08,27,-5.20
2013,12,08,08,28,-5.20
2013,12,08,08,29,-5.20
2013,12,08,08,30,-5.20
2013,12,08,08,31,-5.20
2013,12,08,08,32,-5.20
2013,12,08,08,33,-5.20
2013,12,08,08,34,-5.20
2013,12,08,08,35,-5.20
2013,12,08,08,36,-5.20
2013,12,08,08,37,-5.20
2013,12,08,08,38,-5.20
2013,12,08,08,39,-5.20
2013,12,08,08,40,-5.20
2013,12,08,08,41,-5.20
2013,12,08,08,42,-5.20
2013,12,08,08,43,-5.20
2013,12,08,08,44,-5.20
2013,12,08,08,45,-5.10
2013,12,08,08,46,-5.10
2013,12,08,08,47,-5.10
2013,12,08,08,48,-5.10
2013,12,08,08,49,-5.10
2013,12,08,08,50,-5.10
2013,12,08,08,51,-5.10
2013,12,08,08,52,-5.10
2013,12,08,08,53,-5.10
2013,12,08,08,54,-5.10
2013,12,08,08,55,-5.10
2013,12,08,08,56,-5.10
2013,12,08,08,57,-5.10
2013,12,08,08,58,-5.10
2013,12,08,08,59,-5.10
2013,12,08,09,00,-5.10
2013,12,08,09,01,-5.10
2013,12,08,09,02,-5.10
2013,12,08,09,03,-5.10
2013,12,08,09,04,-5.10
2013,12,08,09,05,-5.00
2013,12,08,09,06,-5.00
2013,12,08,09,07,-5.00
2013,12,08,09,08,-5.00
2013,12,08,09,09,-4.90
2013,12,08,09,10,-4.90
2013,12,08,09,11,-4.90
2013,12,08,09,12,-4.90
2013,12,08,09,13,-4.90
2013,12,08,09,14,-4.80
2013,12,08,09,15,-4.80
2013,12,08,09,16,-4.80
2013,12,08,09,17,-4.80
2013,12,08,09,18,-4.70
2013,12,08,09,19,-4.70
2013,12,08,09,20,-4.70
2013,12,08,09,21,-4.60
2013,12,08,09,22,-4.60
2013,12,08,09,23,-4.60
2013,12,08,09,24,-4.50
2013,12,08,09,25,-4.50
2013,12,08,09,26,-4.50
2013,12,08,09,27,-4.40
2013,12,08,09,28,-4.40
2013,12,08,09,29,-4.40
2013,12,08,09,30,-4.30
2013,12,08,09,31,-4.30
2013,12,08,09,32,-4.30
2013,12,08,09,33,-4.30
2013,12,08,09,34,-4.20
2013,12,08,09,35,-4.20
2013,12,08,09,36,-4.20
2013,12,08,09,37,-4.20
2013,12,08,09,38,-4.20
2013,12,08,09,39,-4.10
2013,12,08,09,40,-4.10
2013,12,08,09,41,-4.10
2013,12,08,09,42,-4.10
2013,12,08,09,43,-4.00
2013,12,08,09,44,-4.00
2013,12,08,09,45,-3.90
2013,12,08,09,46,-3.90
2013,12,08,09,47,-3.90
2013,12,08,09,48,-3.80
2013,12,08,09,49,-3.80
2013,12,08,09,50,-3.80
2013,12,08,09,51,-3.70
2013,12,08,09,52,-3.70
2013,12,08,09,53,-3.70
2013,12,08,09,54,-3.60
2013,12,08,09,55,-3.60
2013,12,08,09,56,-3.60
2013,12,08,09,57,-3.50
2013,12,08,09,58,-3.50
2013,12,08,09,59,-3.40
2013,12,08,10,00,-3.40
2013,12,08,10,01,-3.30
2013,12,08,10,02,-3.30
2013,12,08,10,03,-3.20
2013,12,08,10,04,-3.20
2013,12,08,10,05,-3.20
2013,12,08,10,06,-3.10
2013,12,08,10,07,-3.10
2013,12,08,10,08,-3.10
2013,12,08,10,09,-3.10
2013,12,08,10,10,-3.00
2013,12,08,10,11,-3.00
2013,12,08,10,12,-2.90
2013,12,08,10,13,-2.90
2013,12,08,10,14,-2.80
2013,12,08,10,15,-2.80
2013,12,08,10,16,-2.70
2013,12,08,10,17,-2.70
2013,12,08,10,18,-2.60
2013,12,08,10,19,-2.60
2013,12,08,10,20,-2.50
2013,12,08,10,21,-2.50
2013,12,08,10,22,-2.40
2013,12,08,10,23,-2.40
2013,12,08,10,24,-2.30
2013,12,08,10,25,-2.30
2013,12,08,10,26,-2.30
2013,12,08,10,27,-2.20
2013,12,08,10,28,-2.20
2013,12,08,10,29,-2.20
2013,12,08,10,30,-2.10
2013,12,08,10,31,-2.10
2013,12,08,10,32,-2.10
2013,12,08,10,33,-2.00
2013,12,08,10,34,-2.00
2013,12,08,10,35,-2.00
2013,12,08,10,36,-1.90
2013,12,08,10,37,-1.90
2013,12,08,10,38,-1.80
2013,12,08,10,39,-1.80
2013,12,08,10,40,-1.80
2013,12,08,10,41,-1.70
2013,12,08,10,42,-1.70
2013,12,08,10,43,-1.70
2013,12,08,10,44,-1.60
2013,12,08,10,45,-1.60
2013,12,08,10,46,-1.50
2013,12,08,10,47,-1.50
2013,12,08,10,48,-1.40
2013,12,08,10,49,-1.40
2013,12,08,10,50,-1.30
2013,12,08,10,51,-1.30
2013,12,08,10,52,-1.30
2013,12,08,10,53,-1.20
2013,12,08,10,54,-1.20
2013,12,08,10,55,-1.20
2013,12,08,10,56,-1.20
2013,12,08,10,57,-1.10
2013,12,08,10,58,-1.10
2013,12,08,10,59,-1.10
2013,12,08,11,00,-1.10
2013,12,08,11,01,-1.10
2013,12,08,11,02,-1.10
2013,12,08,11,03,-1.10
2013,12,08,11,04,-1.10
2013,12,08,11,05,-1.10
2013,12,08,11,06,-1.10
2013,12,08,11,07,-1.10
2013,12,08,11,08,-1.10
2013,12,08,11,09,-1.10
2013,12,08,11,10,-1.10
2013,12,08,11,11,-1.10
2013,12,08,11,12,-1.10
2013,12,08,11,13,-1.10
2013,12,08,11,14,-1.10
2013,12,08,11,15,-1.10
2013,12,08,11,16,-1.10
2013,12,08,11,17,-1.10
2013,12,08,11,18,-1.10
2013,12,08,11,19,-1.10
2013,12,08,11,20,-1.10
2013,12,08,11,21,-1.10
2013,12,08,11,22,-1.10
2013,12,08,11,23,-1.10
2013,12,08,11,24,-1.10
2013,12,08,11,25,-1.00
2013,12,08,11,26,-1.00
2013,12,08,11,27,-1.00
2013,12,08,11,28,-1.00
2013,12,08,11,29,-1.00
2013,12,08,11,30,-1.00
2013,12,08,11,31,-1.00
2013,12,08,11,32,-1.00
2013,12,08,11,33,-1.00
2013,12,08,11,34,-1.00
2013,12,08,11,35,-1.00
2013,12,08,11,36,-1.00
2013,12,08,11,37,-1.00
2013,12,08,11,38,-0.90
2013,12,08,11,39,-0.90
2013,12,08,11,40,-0.90
2013,12,08,11,41,-0.90
2013,12,08,11,42,-0.80
2013,12,08,11,43,-0.80
2013,12,08,11,44,-0.80
2013,12,08,11,45,-0.80
2013,12,08,11,46,-0.80
2013,12,08,11,47,-0.70
2013,12,08,11,48,-0.70
2013,12,08,11,49,-0.70
2013,12,08,11,50,-0.60
2013,12,08,11,51,-0.60
2013,12,08,11,52,-0.50
2013,12,08,11,53,-0.50
2013,12,08,11,54,-0.40
2013,12,08,11,55,-0.40
2013,12,08,11,56,-0.40
2013,12,08,11,57,-0.30
2013,12,08,11,58,-0.30
2013,12,08,11,59,-0.30
2013,12,08,12,00,-0.30
2013,12,08,12,01,-0.30
2013,12,08,12,02,-0.20
2013,12,08,12,03,-0.20
2013,12,08,12,04,-0.20
2013,12,08,12,05,-0.20
2013,12,08,12,06,-0.20
2013,12,08,12,07,-0.20
2013,12,08,12,08,-0.20
2013,12,08,12,09,-0.20
2013,12,08,12,10,-0.20
2013,12,08,12,11,-0.20
2013,12,08,12,12,-0.20
2013,12,08,12,13,-0.10
2013,12,08,12,14,-0.10
2013,12,08,12,15,-0.10
2013,12,08,12,16,-0.10
2013,12,08,12,17,-0.10
2013,12,08,12,18,-0.10
2013,12,08,12,19,-0.10
2013,12,08,12,20,-0.10
2013,12,08,12,21,-0.10
2013,12,08,12,22,-0.10
2013,12,08,12,23,-0.10
2013,12,08,12,24,-0.10
2013,12,08,12,25,-0.10
2013,12,08,12,26,-0.10
2013,12,08,12,27,-0.10
2013,12,08,12,28,-0.10
2013,12,08,12,29,-0.10
2013,12,08,12,30,-0.10
2013,12,08,12,31,0.00
2013,12,08,12,32,0.00
2013,12,08,12,33,0.00
2013,12,08,12,34,0.00
2013,12,08,12,35,0.00
2013,12,08,12,36,0.10
2013,12,08,12,37,0.10
2013,12,08,12,38,0.10
2013,12,08,12,39,0.10
2013,12,08,12,40,0.10
2013,12,08,12,41,0.20
2013,12,08,12,42,0.20
2013,12,08,12,43,0.20
2013,12,08,12,44,0.20
2013,12,08,12,45,0.20
2013,12,08,12,46,0.20
2013,12,08,12,47,0.20
2013,12,08,12,48,0.20
2013,12,08,12,49,0.20
2013,12,08,12,50,0.20
2013,12,08,12,51,0.20
2013,12,08,12,52,0.20
2013,12,08,12,53,0.20
2013,12,08,12,54,0.20
2013,12,08,12,55,0.20
2013,12,08,12,56,0.20
2013,12,08,12,57,0.20
2013,12,08,12,58,0.20
2013,12,08,12,59,0.20
2013,12,08,13,00,0.20
2013,12,08,13,01,0.20
2013,12,08,13,02,0.20
2013,12,08,13,03,0.20
2013,12,08,13,04,0.20
2013,12,08,13,05,0.30
2013,12,08,13,06,0.30
2013,12,08,13,07,0.30
2013,12,08,13,08,0.30
2013,12,08,13,09,0.30
2013,12,08,13,10,0.30
2013,12,08,13,11,0.30
2013,12,08,13,12,0.40
2013,12,08,13,13,0.40
2013,12,08,13,14,0.40
2013,12,08,13,15,0.40
2013,12,08,13,16,0.40
2013,12,08,13,17,0.40
2013,12,08,13,18,0.40
2013,12,08,13,19,0.40
2013,12,08,13,20,0.40
2013,12,08,13,21,0.40
2013,12,08,13,22,0.40
2013,12,08,13,23,0.40
2013,12,08,13,24,0.40
2013,12,08,13,25,0.40
2013,12,08,13,26,0.40
2013,12,08,13,27,0.40
2013,12,08,13,28,0.40
2013,12,08,13,29,0.40
2013,12,08,13,30,0.40
2013,12,08,13,31,0.40
2013,12,08,13,32,0.40
2013,12,08,13,33,0.50
2013,12,08,13,34,0.50
2013,12,08,13,35,0.50
2013,12,08,13,36,0.60
2013,12,08,13,37,0.60
2013,12,08,13,38,0.60
2013,12,08,13,39,0.60
2013,12,08,13,40,0.60
2013,12,08,13,41,0.60
2013,12,08,13,42,0.60
2013,12,08,13,43,0.60
2013,12,08,13,44,0.60
2013,12,08,13,45,0.60
2013,12,08,13,46,0.60
2013,12,08,13,47,0.60
2013,12,08,13,48,0.60
2013,12,08,13,49,0.60
2013,12,08,13,50,0.60
2013,12,08,13,51,0.60
2013,12,08,13,52,0.60
2013,12,08,13,53,0.60
2013,12,08,13,54,0.60
2013,12,08,13,55,0.60
2013,12,08,13,56,0.60
2013,12,08,13,57,0.60
2013,12,08,13,58,0.50
2013,12,08,13,59,0.50
2013,12,08,14,00,0.40
2013,12,08,14,01,0.40
2013,12,08,14,02,0.30
2013,12,08,14,03,0.30
2013,12,08,14,04,0.30
2013,12,08,14,05,0.30
2013,12,08,14,06,0.30
2013,12,08,14,07,0.30
2013,12,08,14,08,0.30
2013,12,08,14,09,0.30
2013,12,08,14,10,0.30
2013,12,08,14,11,0.30
2013,12,08,14,12,0.30
2013,12,08,14,13,0.30
2013,12,08,14,14,0.30
2013,12,08,14,15,0.30
2013,12,08,14,16,0.30
2013,12,08,14,17,0.30
2013,12,08,14,18,0.30
2013,12,08,14,19,0.30
2013,12,08,14,20,0.30
2013,12,08,14,21,0.30
2013,12,08,14,22,0.30
2013,12,08,14,23,0.30
2013,12,08,14,24,0.30
2013,12,08,14,25,0.30
2013,12,08,14,26,0.40
2013,12,08,14,27,0.40
2013,12,08,14,28,0.40
2013,12,08,14,29,0.40
2013,12,08,14,30,0.40
2013,12,08,14,31,0.40
2013,12,08,14,32,0.40
2013,12,08,14,33,0.40
2013,12,08,14,34,0.40
2013,12,08,14,35,0.40
2013,12,08,14,36,0.40
2013,12,08,14,37,0.40
2013,12,08,14,38,0.40
2013,12,08,14,39,0.40
2013,12,08,14,40,0.40
2013,12,08,14,41,0.40
2013,12,08,14,42,0.40
2013,12,08,14,43,0.40
2013,12,08,14,44,0.40
2013,12,08,14,45,0.40
2013,12,08,14,46,0.40
2013,12,08,14,47,0.40
2013,12,08,14,48,0.40
2013,12,08,14,49,0.40
2013,12,08,14,50,0.40
2013,12,08,14,51,0.40
2013,12,08,14,52,0.40
2013,12,08,14,53,0.30
2013,12,08,14,54,0.30
2013,12,08,14,55,0.30
2013,12,08,14,56,0.30
2013,12,08,14,57,0.30
2013,12,08,14,58,0.30
2013,12,08,14,59,0.30
2013,12,08,15,00,0.20
2013,12,08,15,01,0.20
2013,12,08,15,02,0.20
2013,12,08,15,03,0.10
2013,12,08,15,04,0.10
2013,12,08,15,05,0.00
2013,12,08,15,06,0.00
2013,12,08,15,07,0.00
2013,12,08,15,08,-0.10
2013,12,08,15,09,-0.20
2013,12,08,15,10,-0.20
2013,12,08,15,11,-0.20
2013,12,08,15,12,-0.30
2013,12,08,15,13,-0.30
2013,12,08,15,14,-0.40
2013,12,08,15,15,-0.40
2013,12,08,15,16,-0.40
2013,12,08,15,17,-0.50
2013,12,08,15,18,-0.50
2013,12,08,15,19,-0.50
2013,12,08,15,20,-0.60
2013,12,08,15,21,-0.60
2013,12,08,15,22,-0.60
2013,12,08,15,23,-0.60
2013,12,08,15,24,-0.60
2013,12,08,15,25,-0.70
2013,12,08,15,26,-0.70
2013,12,08,15,27,-0.70
2013,12,08,15,28,-0.70
2013,12,08,15,29,-0.70
2013,12,08,15,30,-0.70
2013,12,08,15,31,-0.70
2013,12,08,15,32,-0.70
2013,12,08,15,33,-0.80
2013,12,08,15,34,-0.80
2013,12,08,15,35,-0.80
2013,12,08,15,36,-0.80
2013,12,08,15,37,-0.80
2013,12,08,15,38,-0.80
2013,12,08,15,39,-0.80
2013,12,08,15,40,-0.80
2013,12,08,15,41,-0.80
2013,12,08,15,42,-0.80
2013,12,08,15,43,-0.90
2013,12,08,15,44,-0.90
2013,12,08,15,45,-0.90
2013,12,08,15,46,-0.90
2013,12,08,15,47,-1.00
2013,12,08,15,48,-1.00
2013,12,08,15,49,-1.00
2013,12,08,15,50,-1.10
2013,12,08,15,51,-1.10
2013,12,08,15,52,-1.10
2013,12,08,15,53,-1.10
2013,12,08,15,54,-1.10
2013,12,08,15,55,-1.20
2013,12,08,15,56,-1.20
2013,12,08,15,57,-1.20
2013,12,08,15,58,-1.20
2013,12,08,15,59,-1.30
2013,12,08,16,00,-1.30
2013,12,08,16,01,-1.30
2013,12,08,16,02,-1.40
2013,12,08,16,03,-1.40
2013,12,08,16,04,-1.40
2013,12,08,16,05,-1.50
2013,12,08,16,06,-1.50
2013,12,08,16,07,-1.50
2013,12,08,16,08,-1.50
2013,12,08,16,09,-1.60
2013,12,08,16,10,-1.60
2013,12,08,16,11,-1.60
2013,12,08,16,12,-1.70
2013,12,08,16,13,-1.70
2013,12,08,16,14,-1.70
2013,12,08,16,15,-1.70
2013,12,08,16,16,-1.70
2013,12,08,16,17,-1.80
2013,12,08,16,18,-1.80
2013,12,08,16,19,-1.80
2013,12,08,16,20,-1.80
2013,12,08,16,21,-1.80
2013,12,08,16,22,-1.80
2013,12,08,16,23,-1.80
2013,12,08,16,24,-1.80
2013,12,08,16,25,-1.90
2013,12,08,16,26,-1.90
2013,12,08,16,27,-1.90
2013,12,08,16,28,-1.90
2013,12,08,16,29,-1.90
2013,12,08,16,30,-1.90
2013,12,08,16,31,-1.90
2013,12,08,16,32,-2.00
2013,12,08,16,33,-2.00
2013,12,08,16,34,-2.00
2013,12,08,16,35,-2.00
2013,12,08,16,36,-2.00
2013,12,08,16,37,-2.00
2013,12,08,16,38,-2.00
2013,12,08,16,39,-2.10
2013,12,08,16,40,-2.10
2013,12,08,16,41,-2.10
2013,12,08,16,42,-2.10
2013,12,08,16,43,-2.10
2013,12,08,16,44,-2.10
2013,12,08,16,45,-2.10
2013,12,08,16,46,-2.10
2013,12,08,16,47,-2.10
2013,12,08,16,48,-2.20
2013,12,08,16,49,-2.20
2013,12,08,16,50,-2.20
2013,12,08,16,51,-2.20
2013,12,08,16,52,-2.20
2013,12,08,16,53,-2.20
2013,12,08,16,54,-2.20
2013,12,08,16,55,-2.20
2013,12,08,16,56,-2.20
2013,12,08,16,57,-2.20
2013,12,08,16,58,-2.20
2013,12,08,16,59,-2.20
2013,12,08,17,00,-2.30
2013,12,08,17,01,-2.30
2013,12,08,17,02,-2.30
2013,12,08,17,03,-2.30
2013,12,08,17,04,-2.30
2013,12,08,17,05,-2.30
2013,12,08,17,06,-2.30
2013,12,08,17,07,-2.30
2013,12,08,17,08,-2.40
2013,12,08,17,09,-2.40
2013,12,08,17,10,-2.40
2013,12,08,17,11,-2.40
2013,12,08,17,12,-2.40
2013,12,08,17,13,-2.40
2013,12,08,17,14,-2.40
2013,12,08,17,15,-2.50
2013,12,08,17,16,-2.50
2013,12,08,17,17,-2.50
2013,12,08,17,18,-2.50
2013,12,08,17,19,-2.50
2013,12,08,17,20,-2.60
2013,12,08,17,21,-2.60
2013,12,08,17,22,-2.60
2013,12,08,17,23,-2.60
2013,12,08,17,24,-2.60
2013,12,08,17,25,-2.60
2013,12,08,17,26,-2.60